Date String (YYYY-MM-DD hh:mm:ss) UTC,Instrument flags,Ambient pressure (hPa),Sample flow (lpm),Bypass flow (lpm),Sample temperature (°C),Ambient temperature (°C),ASC tube jacket temperature (°C),LED temperature (°C),Box temperature (°C),Sample RH (%),Span deviation,Mass concentration (μg/m³),Mass concentration (μg/m³),Mass concentration (μg/m³)
DateTimeUTC,F1_M11,P_M11,Q1_M11,Q2_M11,T1_M11,T2_M11,T3_M11,T4_M11,T5_M11,U1_M11,ZSPAN_M11,X0_M11,X2_M11,X1_M11
2022-10-27 07:00:00,,0819.1,5.00,0.00,27.0,25.3,00.0,35.8,28.9,13.4,0000.0,0008.20,0003.09,0002.24
2022-10-27 07:01:00,,0819.1,5.00,0.00,27.0,25.3,00.0,35.8,28.9,13.4,0000.0,0007.84,0003.14,0002.23
2022-10-27 07:02:00,,0819.2,4.99,0.00,27.0,25.3,00.0,35.8,28.9,13.4,0000.0,0007.63,0003.18,0002.22
2022-10-27 07:03:00,,0819.2,5.00,0.00,27.0,25.4,00.0,35.8,28.9,13.4,0000.0,0007.72,0003.19,0002.20
2022-10-27 07:04:00,,0819.2,5.02,0.00,27.0,25.4,00.0,35.8,28.8,13.5,0000.0,0008.01,0003.16,0002.18
2022-10-27 07:05:00,,0819.3,5.00,0.00,27.0,25.4,00.0,35.8,28.9,13.5,0000.0,0007.57,0003.12,0002.15
2022-10-27 07:06:00,,0819.3,5.00,0.00,27.0,25.4,00.0,35.8,28.9,13.5,0000.0,0007.43,0003.07,0002.14
2022-10-27 07:07:00,,0819.3,4.99,0.00,27.0,25.4,00.0,35.8,28.9,13.5,0000.0,0007.85,0003.06,0002.16
2022-10-27 07:08:00,,0819.3,5.00,0.00,27.0,25.4,00.0,35.8,28.9,13.6,0000.0,0007.93,0003.06,0002.16
2022-10-27 07:09:00,,0819.3,5.00,0.00,27.0,25.4,00.0,35.8,28.9,13.6,0000.0,0007.88,0003.08,0002.16
2022-10-27 07:10:00,,0819.2,5.00,0.00,27.0,25.4,00.0,35.8,29.0,13.6,0000.0,0007.99,0003.09,0002.16
2022-10-27 07:11:00,,0819.2,5.02,0.00,27.0,25.4,00.0,35.8,28.9,13.6,0000.0,0007.80,0003.06,0002.16
2022-10-27 07:12:00,,0819.3,5.00,0.00,27.0,25.4,00.0,35.8,28.9,13.7,0000.0,0007.70,0002.98,0002.16
2022-10-27 07:13:00,,0819.2,5.00,0.00,27.0,25.4,00.0,35.8,28.9,13.7,0000.0,0007.73,0002.95,0002.16
2022-10-27 07:14:00,,0819.3,5.00,0.00,27.0,25.4,00.0,35.8,28.9,13.8,0000.0,0007.67,0002.94,0002.17
2022-10-27 07:15:00,,0819.3,5.01,0.00,27.0,25.4,00.0,35.8,28.9,13.8,0000.0,0007.61,0002.98,0002.17
2022-10-27 07:16:00,,0819.2,5.00,0.00,27.0,25.4,00.0,35.8,28.9,13.8,0000.0,0008.36,0002.97,0002.18
2022-10-27 07:17:00,,0819.2,5.00,0.00,27.0,25.4,00.0,35.8,28.9,13.8,0000.0,0008.56,0002.97,0002.19
2022-10-27 07:18:00,,0819.2,5.00,0.00,27.0,25.4,00.0,35.8,28.9,13.8,0000.0,0008.56,0002.94,0002.18
2022-10-27 07:19:00,,0819.2,5.00,0.00,27.0,25.4,00.0,35.8,28.9,13.8,0000.0,0008.62,0002.97,0002.19
2022-10-27 07:20:00,,0819.3,5.00,0.00,27.0,25.4,00.0,35.8,28.9,13.8,0000.0,0008.40,0003.01,0002.21
2022-10-27 07:21:00,,0819.2,5.00,0.00,27.0,25.4,00.0,35.8,29.0,13.7,0000.0,0008.29,0003.04,0002.22
2022-10-27 07:22:00,,0819.3,5.00,0.00,27.0,25.4,00.0,35.8,28.9,13.7,0000.0,0008.51,0003.05,0002.23
2022-10-27 07:23:00,,0819.3,5.00,0.00,27.0,25.4,00.0,35.8,28.9,13.7,0000.0,0008.62,0003.09,0002.25
2022-10-27 07:24:00,,0819.2,5.01,0.00,27.0,25.4,00.0,35.8,28.9,13.7,0000.0,0008.75,0003.11,0002.26
2022-10-27 07:25:00,,0819.3,5.00,0.00,27.0,25.4,00.0,35.8,29.0,13.6,0000.0,0009.48,0003.13,0002.27
2022-10-27 07:26:00,,0819.2,5.00,0.00,27.0,25.4,00.0,35.8,28.9,13.5,0000.0,0009.38,0003.14,0002.29
2022-10-27 07:27:00,,0819.2,4.99,0.00,27.0,25.4,00.0,35.8,28.9,13.5,0000.0,0008.76,0003.14,0002.30
2022-10-27 07:28:00,,0819.2,5.00,0.00,27.0,25.4,00.0,35.8,28.9,13.4,0000.0,0008.84,0003.13,0002.30
2022-10-27 07:29:00,,0819.3,5.00,0.00,27.0,25.4,00.0,35.8,28.9,13.4,0000.0,0008.51,0003.11,0002.29
2022-10-27 07:30:00,,0819.2,5.00,0.00,27.0,25.4,00.0,35.8,28.9,13.3,0000.0,0008.06,0003.05,0002.27
2022-10-27 07:31:00,,0819.2,5.01,0.00,27.0,25.3,00.0,35.8,28.9,13.3,0000.0,0008.19,0003.01,0002.24
2022-10-27 07:32:00,,0819.3,5.01,0.00,27.0,25.3,00.0,35.8,28.9,13.3,0000.0,0008.13,0002.97,0002.22
2022-10-27 07:33:00,,0819.3,5.00,0.00,27.0,25.3,00.0,35.8,28.9,13.3,0000.0,0007.81,0002.94,0002.18
2022-10-27 07:34:00,,0819.3,5.00,0.00,27.0,25.3,00.0,35.8,28.9,13.3,0000.0,0007.56,0002.83,0002.12
2022-10-27 07:35:00,,0819.4,5.01,0.00,27.0,25.3,00.0,35.8,28.9,13.3,0000.0,0007.40,0002.73,0002.07
2022-10-27 07:36:00,,0819.4,4.99,0.00,26.9,25.3,00.0,35.8,28.9,13.2,0000.0,0005.94,0002.63,0002.02
2022-10-27 07:37:00,,0819.3,5.00,0.00,26.9,25.3,00.0,35.8,28.9,13.2,0000.0,0005.61,0002.58,0001.98
2022-10-27 07:38:00,,0819.4,4.99,0.00,26.9,25.3,00.0,35.8,28.9,13.2,0000.0,0005.50,0002.52,0001.92
2022-10-27 07:39:00,,0819.4,4.99,0.00,26.9,25.3,00.0,35.8,28.9,13.2,0000.0,0005.46,0002.49,0001.88
2022-10-27 07:40:00,,0819.4,5.02,0.00,26.9,25.3,00.0,35.8,28.9,13.2,0000.0,0006.21,0002.44,0001.83
2022-10-27 07:41:00,,0819.4,5.00,0.00,26.9,25.3,00.0,35.8,28.8,13.2,0000.0,0006.35,0002.43,0001.80
2022-10-27 07:42:00,,0819.4,5.00,0.00,26.9,25.2,00.0,35.8,28.8,13.2,0000.0,0006.65,0002.42,0001.75
2022-10-27 07:43:00,,0819.4,5.00,0.00,26.9,25.2,00.0,35.8,28.8,13.2,0000.0,0007.31,0002.45,0001.73
2022-10-27 07:44:00,,0819.4,4.99,0.00,26.9,25.3,00.0,35.7,28.8,13.2,0000.0,0007.94,0002.41,0001.70
2022-10-27 07:45:00,,0819.4,5.00,0.00,26.9,25.2,00.0,35.7,28.8,13.2,0000.0,0008.67,0002.46,0001.69
2022-10-27 07:46:00,,0819.4,5.02,0.00,26.9,25.2,00.0,35.7,28.8,13.2,0000.0,0008.83,0002.52,0001.68
2022-10-27 07:47:00,,0819.4,5.00,0.00,26.9,25.2,00.0,35.7,28.8,13.2,0000.0,0009.20,0002.53,0001.67
2022-10-27 07:48:00,,0819.4,5.00,0.00,26.9,25.2,00.0,35.7,28.8,13.2,0000.0,0009.38,0002.51,0001.66
2022-10-27 07:49:00,,0819.4,5.00,0.00,26.9,25.2,00.0,35.7,28.8,13.2,0000.0,0009.32,0002.48,0001.66
2022-10-27 07:50:00,,0819.4,5.01,0.00,26.9,25.2,00.0,35.7,28.8,13.1,0000.0,0008.93,0002.48,0001.64
2022-10-27 07:51:00,,0819.4,5.00,0.00,26.9,25.2,00.0,35.7,28.8,13.1,0000.0,0008.49,0002.42,0001.62
2022-10-27 07:52:00,,0819.4,4.99,0.00,26.9,25.2,00.0,35.7,28.8,13.1,0000.0,0008.73,0002.39,0001.60
2022-10-27 07:53:00,,0819.4,5.00,0.00,26.9,25.2,00.0,35.7,28.7,13.2,0000.0,0008.42,0002.32,0001.58
2022-10-27 07:54:00,,0819.4,5.00,0.00,26.9,25.2,00.0,35.7,28.7,13.2,0000.0,0008.24,0002.25,0001.55
2022-10-27 07:55:00,,0819.4,5.00,0.00,26.8,25.2,00.0,35.7,28.7,13.2,0000.0,0007.53,0002.20,0001.54
2022-10-27 07:56:00,,0819.4,5.01,0.00,26.8,25.2,00.0,35.7,28.7,13.2,0000.0,0006.64,0002.17,0001.52
2022-10-27 07:57:00,,0819.4,5.01,0.00,26.8,25.2,00.0,35.7,28.7,13.2,0000.0,0006.46,0002.14,0001.52
2022-10-27 07:58:00,,0819.4,5.00,0.00,26.8,25.2,00.0,35.7,28.7,13.2,0000.0,0005.76,0002.10,0001.52
2022-10-27 07:59:00,,0819.4,5.01,0.00,26.8,25.2,00.0,35.7,28.7,13.2,0000.0,0005.42,0002.11,0001.52
